Home > Time Zones > World Clock > Weather > Egypt > Cairo > Past weeks

Flag for Egypt Weather past 2 weeks in Cairo, Egypt

Now
81 °F

Clear.


Feels Like: 84 °F
Forecast: 74 / 98 °F
Wind: 6 mph from North

Location: Cairo Airport

Current Time: Aug 28, 2014 at 12:24:29 AM

Latest Report: Aug 28, 2014 at 12:00 AM


Visibility: 10 mi

Pressure: 29.77 "Hg

Humidity: 70%

Dew point: 70 °F

Location of CairoLocation

Historic Weather in Cairo — Graph

°F

Cairo temperature yesterday

Maximum temperature yesterday: 95 °F (at 3:00 PM)
Minimum temperature yesterday: 77 °F (at 5:30 AM)
Average temperature yesterday: 85 °F

Past Weeks' High & Low Weather Summary

 TemperatureHumidityPressure
High100 °F (Aug 24, 4:00 PM)94% (Aug 16, 7:30 AM)29.98 "Hg (Aug 16, 7:30 AM)
Low75 °F (Aug 13, 7:00 AM)18% (Aug 26, 4:30 PM)29.65 "Hg (Aug 17, 3:00 PM)
Average85 °F57%29.81 "Hg
* Reported Aug 12 11:00 PM — Aug 27 11:00 PM, Cairo, Weather by CustomWeather, © 2014

Note: Actual official high and low records may vary slightly from our data, if they occured in-between our weather recording intervals... More about our weather records

Advertising

Cairo weather history for previous 24 hours

 ConditionsComfort  
Time TempWeatherWind HumidityBarometerVisibility
11:00 PM
Aug 27
82 °FClear.8 mph62%29.77 "Hg10 mi
10:30 PM82 °FClear.10 mph62%29.77 "Hg10 mi
10:00 PM84 °FClear.6 mph58%29.77 "Hg10 mi
9:00 PM88 °FClear.7 mph38%29.77 "Hg10 mi
8:30 PM88 °FClear.7 mph33%29.77 "Hg10 mi
8:00 PM90 °FClear.9 mph38%29.77 "Hg10 mi
7:30 PM90 °FClear.9 mph38%29.74 "Hg10 mi
7:00 PM90 °FSunny.9 mph41%29.74 "Hg10 mi
5:30 PM93 °FSunny.12 mph39%29.74 "Hg10 mi
5:00 PM93 °FSunny.10 mph36%29.74 "Hg10 mi
4:30 PM95 °FSunny.12 mph30%29.74 "Hg10 mi
4:00 PM95 °FSunny.13 mph30%29.74 "Hg10 mi
3:30 PM95 °FSunny.10 mph28%29.74 "Hg10 mi
3:00 PM95 °FSunny.12 mph32%29.77 "Hg10 mi
2:30 PM93 °FPassing clouds.9 mph32%29.77 "HgN/A
2:00 PM91 °FSunny.9 mph38%29.80 "Hg10 mi
1:30 PM91 °FSunny.7 mph38%29.80 "Hg10 mi
1:00 PM90 °FSunny.8 mph41%29.80 "Hg10 mi
12:30 PM88 °FSunny.8 mph46%29.80 "Hg10 mi
12:00 PM88 °FSunny.6 mph49%29.83 "Hg10 mi
11:30 AM86 °FSunny.6 mph55%29.83 "Hg10 mi
11:00 AM86 °FSunny.6 mph55%29.83 "Hg10 mi
10:30 AM84 °FSunny.6 mph58%29.83 "Hg10 mi
10:00 AM84 °FSunny.6 mph62%29.83 "Hg10 mi
9:30 AM82 °FClear.6 mph66%29.83 "Hg4 mi
9:00 AM81 °FClear.6 mph74%29.83 "Hg4 mi
8:30 AM81 °FFog.No wind74%29.83 "Hg2 mi
8:00 AM79 °FFog.No wind79%29.83 "Hg2 mi
7:30 AM79 °FFog.No wind79%29.83 "Hg2 mi
7:00 AM77 °FFog.No wind83%29.83 "Hg2 mi
6:30 AM77 °FFog.No wind83%29.80 "Hg2 mi
6:00 AM77 °FFog.6 mph83%29.80 "Hg2 mi
5:30 AM77 °FClear.3 mph83%29.80 "Hg4 mi
5:00 AM79 °FClear.No wind70%29.80 "Hg4 mi
4:30 AM79 °FClear.2 mph70%29.80 "Hg4 mi
4:00 AM79 °FClear.2 mph70%29.80 "Hg4 mi
3:30 AM81 °FClear.No wind62%29.83 "Hg4 mi
3:00 AM81 °FClear.No wind58%29.83 "Hg4 mi
2:30 AM82 °FClear.5 mph55%29.83 "Hg4 mi
2:00 AM82 °FClear.3 mph51%29.83 "Hg4 mi
1:30 AM84 °FClear.2 mph48%29.83 "Hg10 mi
1:00 AM84 °FClear.3 mph45%29.83 "Hg10 mi
12:30 AM84 °FClear.No wind45%29.83 "Hg10 mi
12:00 AM86 °FClear.3 mph43%29.83 "Hg10 mi
Weather by CustomWeather, © 2014

See weather overviewHow to use our weather pages